Content
SEND FEEDBACK

Daily
Averages
Monthly
Summary
United States of America

BLAND, VIRGINIA


Home > North America > United States > Virginia
Elevation: 200 feet     Latitude: 37 06N     Longitude: 081 07W

WEATHER
 
SELECT A DAY
Number of Records: 212,225;   Date Range: 1/1/95 - 11/20/14
 
SHARE

PRINT THIS DATA

[ ← Previous Day ]
WEATHER ALMANAC - JULY 12, 2014
[ Next Day → ]
[ °C ]   °F
Weather ElementAverageHighLow
Temperature76.8 °F86 °F (4:52 pm)66.9 °F (8:52 am)
Dewpoint61.6 °F64 °F (8:52 pm)60.1 °F (1:52 pm)
Humidity60.4 %81 % (3:52 am)43 % (1:52 pm)
Barometer30.16 in30.19 in (11:48 am)30.11 in (11:52 am)
Wind Speed3 mph8.1 mph (3:52 am)
Weather ElementAverage
Visibility10 mi
Wind DirectionESE (110.9 °)

Weather ElementTotal
Precipitation---
Cooling Degree Days11.5 (Base 65)
Growing Degree Days26.5 (Base 50)
Averaged from 22 records on July 12, 2014
WEATHER CONDITIONS BREAKOUT
WIND DIRECTION BREAKOUT
WEATHER BY HOUR - JULY 12, 2014
[ °C ]   °F
Local TimeTemperatureDewpointHumidityBarometerVisibilityWind DirectionWind SpeedGust SpeedPrecipitationEventsConditions
12:52 AM71.1 °F61.0 °F70 %30.19 in10.0 miCalmClear
1:52 AM71.1 °F61.0 °F70 %30.18 in10.0 miSSW (210°)4.6 mphClear
2:52 AM70.0 °F61.0 °F73 %30.17 in10.0 miCalmClear
3:52 AM69.1 °F61.0 °F75 %30.17 in10.0 miSouth (190°)3.5 mphClear
4:52 AM70.0 °F61.0 °F73 %30.18 in10.0 miCalmClear
6:52 AM66.9 °F61.0 °F81 %30.19 in10.0 miCalmMostly Cloudy
7:52 AM70.0 °F62.1 °F76 %30.19 in10.0 miCalmPartly Cloudy
8:52 AM75.0 °F62.1 °F64 %30.19 in10.0 miCalmClear
9:52 AM79.0 °F64.0 °F60 %30.19 in10.0 miCalmClear
10:52 AM81.0 °F62.1 °F52 %30.19 in10.0 miCalmClear
11:52 AM82.0 °F61.0 °F49 %30.19 in10.0 miWSW (250°)8.1 mphMostly Cloudy
1:52 PM84.9 °F60.1 °F43 %30.17 in10.0 miNorthMostly Cloudy
2:52 PM82.9 °F62.1 °F49 %30.17 in10.0 miWest (280°)8.1 mphMostly Cloudy
3:52 PM82.0 °F61.0 °F49 %30.16 in10.0 miWNW (300°)8.1 mphScattered Clouds
4:52 PM86.0 °F61.0 °F43 %30.13 in10.0 miVariable5.8 mphPartly Cloudy
5:52 PM84.9 °F61.0 °F44 %30.12 in10.0 miNW (310°)8.1 mphPartly Cloudy
6:52 PM82.9 °F61.0 °F47 %30.12 in10.0 miNW (320°)5.8 mphClear
7:52 PM81.0 °F61.0 °F50 %30.12 in10.0 miCalmClear
8:52 PM78.1 °F61.0 °F56 %30.11 in10.0 miCalmClear
9:52 PM73.9 °F63.0 °F68 %30.11 in10.0 miSouth (170°)3.5 mphClear
10:52 PM73.9 °F63.0 °F68 %30.12 in10.0 miSSW (210°)3.5 mphClear
11:52 PM73.9 °F63.0 °F68 %30.12 in10.0 miSSW (200°)4.6 mphScattered Clouds
Hourly data recorded from KBLF, located miles away from Bland, Virginia







STORIES FROM OUR PARTNERS